Total_Precipitation_Accumulation
0.00 0.00 0.00 0.00 0.00 0.00 0.00 0.00 0.00 0.00 0.00 0.00 0.01 0.03 0.06 0.07 0.07 0.09 0.10 0.11 0.14 0.15 0.17 0.22 0.23 0.25 0.31 0.33 0.36 0.33 0.28 0.28 0.24 0.06 0.02 0.04 0.12 0.20 0.19 0.14 0.14 0.13 0.11
0.00 0.00 0.00 0.00 0.00 0.00 0.00 0.00 0.00 0.00 0.00 0.00 0.02 0.05 0.09 0.10 0.10 0.13 0.14 0.14 0.17 0.18 0.20 0.23 0.26 0.28 0.32 0.38 0.45 0.45 0.37 0.31 0.28 0.15 0.04 0.04 0.12 0.22 0.26 0.20 0.17 0.15 0.11
0.00 0.00 0.00 0.00 0.00 0.00 0.00 0.00 0.00 0.00 0.00 0.00 0.02 0.07 0.14 0.20 0.18 0.15 0.19 0.20 0.18 0.19 0.21 0.27 0.32 0.34 0.33 0.38 0.48 0.52 0.45 0.36 0.31 0.23 0.11 0.06 0.10 0.22 0.31 0.29 0.25 0.23 0.17
0.00 0.00 0.00 0.00 0.00 0.00 0.00 0.00 0.00 0.00 0.00 0.01 0.01 0.05 0.16 0.29 0.32 0.33 0.36 0.28 0.20 0.15 0.14 0.19 0.31 0.45 0.50 0.54 0.52 0.50 0.49 0.44 0.38 0.32 0.21 0.13 0.12 0.21 0.34 0.38 0.34 0.30 0.26
0.00 0.00 0.00 0.00 0.00 0.00 0.00 0.00 0.00 0.00 0.00 0.00 0.01 0.02 0.12 0.38 0.63 0.80 0.69 0.35 0.16 0.12 0.11 0.16 0.28 0.48 0.61 0.75 0.76 0.63 0.56 0.54 0.50 0.45 0.37 0.28 0.22 0.26 0.34 0.41 0.45 0.41 0.38
0.00 0.00 0.00 0.00 0.00 0.00 0.00 0.00 0.00 0.00 0.00 0.00 0.00 0.01 0.06 0.35 0.71 0.94 0.62 0.24 0.13 0.14 0.16 0.17 0.25 0.44 0.56 0.62 0.69 0.66 0.64 0.68 0.68 0.61 0.54 0.46 0.37 0.32 0.34 0.41 0.51 0.55 0.50
0.00 0.00 0.00 0.00 0.00 0.00 0.00 0.00 0.00 0.00 0.00 0.00 0.00 0.00 0.02 0.18 0.54 0.80 0.49 0.16 0.13 0.15 0.16 0.15 0.19 0.32 0.42 0.49 0.47 0.41 0.43 0.56 0.72 0.74 0.69 0.61 0.52 0.42 0.42 0.43 0.48 0.56 0.56
0.00 0.00 0.00 0.00 0.00 0.00 0.00 0.00 0.00 0.00 0.00 0.00 0.00 0.00 0.00 0.08 0.41 0.68 0.42 0.13 0.12 0.14 0.16 0.13 0.10 0.18 0.31 0.41 0.31 0.32 0.40 0.51 0.69 0.77 0.82 0.75 0.62 0.55 0.53 0.56 0.57 0.53 0.57
0.00 0.00 0.00 0.00 0.00 0.00 0.00 0.00 0.00 0.00 0.00 0.00 0.00 0.00 0.00 0.02 0.26 0.63 0.44 0.13 0.10 0.11 0.14 0.13 0.08 0.09 0.20 0.20 0.14 0.22 0.28 0.39 0.51 0.62 0.62 0.56 0.50 0.55 0.64 0.70 0.74 0.67 0.69
0.00 0.00 0.00 0.00 0.00 0.00 0.00 0.00 0.00 0.00 0.00 0.00 0.00 0.00 0.00 0.01 0.13 0.52 0.53 0.16 0.08 0.08 0.10 0.09 0.11 0.11 0.12 0.10 0.08 0.13 0.24 0.30 0.31 0.34 0.36 0.34 0.34 0.40 0.56 0.77 0.96 0.91 0.84
0.00 0.00 0.00 0.00 0.00 0.00 0.00 0.00 0.00 0.00 0.00 0.00 0.00 0.00 0.00 0.01 0.05 0.30 0.53 0.28 0.11 0.06 0.08 0.10 0.08 0.08 0.05 0.04 0.04 0.09 0.23 0.20 0.17 0.22 0.24 0.26 0.29 0.36 0.51 0.70 0.92 1.07 1.04
0.00 0.00 0.00 0.00 0.00 0.00 0.00 0.00 0.00 0.00 0.01 0.01 0.01 0.01 0.00 0.01 0.05 0.21 0.31 0.26 0.17 0.06 0.08 0.08 0.04 0.03 0.01 0.01 0.01 0.04 0.06 0.05 0.07 0.10 0.13 0.18 0.25 0.35 0.47 0.62 0.79 0.99 1.13
0.00 0.00 0.00 0.00 0.00 0.00 0.00 0.01 0.01 0.01 0.03 0.03 0.03 0.03 0.01 0.02 0.08 0.20 0.15 0.10 0.10 0.09 0.15 0.13 0.02 0.01 0.00 0.00 0.00 0.01 0.01 0.02 0.04 0.07 0.10 0.16 0.23 0.33 0.37 0.43 0.53 0.71 0.88
0.00 0.00 0.00 0.00 0.00 0.00 0.00 0.01 0.02 0.05 0.13 0.12 0.09 0.05 0.04 0.05 0.20 0.31 0.15 0.05 0.05 0.07 0.09 0.05 0.00 0.00 0.00 0.00 0.00 0.00 0.00 0.01 0.04 0.06 0.09 0.11 0.13 0.17 0.24 0.34 0.41 0.51 0.67
0.00 0.00 0.00 0.00 0.00 0.00 0.00 0.01 0.03 0.06 0.18 0.22 0.15 0.13 0.13 0.21 0.33 0.31 0.16 0.09 0.09 0.10 0.06 0.01 0.00 0.00 0.00 0.00 0.00 0.00 0.00 0.00 0.01 0.03 0.05 0.07 0.09 0.12 0.18 0.27 0.37 0.44 0.57
0.00 0.00 0.00 0.00 0.00 0.00 0.00 0.00 0.01 0.04 0.08 0.08 0.09 0.12 0.13 0.23 0.23 0.15 0.10 0.06 0.06 0.04 0.01 0.01 0.00 0.00 0.00 0.00 0.00 0.00 0.00 0.00 0.00 0.01 0.03 0.05 0.09 0.13 0.16 0.21 0.29 0.39 0.52
0.00 0.01 0.01 0.01 0.01 0.01 0.01 0.02 0.02 0.01 0.02 0.02 0.03 0.06 0.11 0.15 0.13 0.09 0.06 0.02 0.01 0.00 0.00 0.01 0.01 0.01 0.01 0.01 0.00 0.00 0.00 0.00 0.00 0.00 0.02 0.03 0.06 0.09 0.13 0.16 0.22 0.31 0.43
0.00 0.01 0.01 0.01 0.02 0.02 0.02 0.02 0.02 0.03 0.02 0.01 0.00 0.02 0.05 0.08 0.08 0.05 0.03 0.00 0.00 0.00 0.01 0.02 0.02 0.01 0.01 0.01 0.01 0.00 0.00 0.00 0.00 0.00 0.00 0.01 0.03 0.06 0.09 0.13 0.17 0.26 0.36
0.00 0.01 0.01 0.01 0.01 0.01 0.01 0.01 0.01 0.02 0.02 0.01 0.00 0.00 0.02 0.02 0.02 0.01 0.01 0.01 0.01 0.01 0.02 0.02 0.03 0.03 0.02 0.01 0.01 0.01 0.00 0.00 0.00 0.00 0.00 0.00 0.01 0.03 0.06 0.09 0.13 0.19 0.26
0.00 0.01 0.01 0.01 0.00 0.00 0.01 0.01 0.02 0.02 0.02 0.02 0.02 0.03 0.08 0.04 0.01 0.01 0.01 0.01 0.02 0.02 0.02 0.03 0.03 0.03 0.03 0.02 0.01 0.01 0.01 0.00 0.00 0.00 0.00 0.00 0.00 0.01 0.03 0.06 0.09 0.13 0.19
0.00 0.00 0.00 0.00 0.00 0.01 0.01 0.02 0.02 0.03 0.03 0.02 0.02 0.04 0.13 0.08 0.03 0.02 0.02 0.03 0.05 0.06 0.05 0.05 0.04 0.04 0.04 0.03 0.02 0.01 0.01 0.00 0.00 0.00 0.00 0.00 0.00 0.00 0.01 0.03 0.05 0.09 0.13
0.00 0.00 0.00 0.00 0.01 0.01 0.01 0.01 0.01 0.02 0.02 0.02 0.02 0.01 0.03 0.03 0.02 0.03 0.03 0.04 0.06 0.07 0.07 0.07 0.06 0.06 0.06 0.06 0.05 0.03 0.02 0.01 0.00 0.00 0.00 0.00 0.00 0.00 0.00 0.01 0.02 0.05 0.08
0.00 0.00 0.00 0.00 0.00 0.00 0.00 0.00 0.01 0.02 0.02 0.02 0.02 0.02 0.02 0.03 0.04 0.05 0.05 0.05 0.06 0.06 0.06 0.07 0.08 0.07 0.08 0.07 0.05 0.05 0.03 0.01 0.01 0.00 0.01 0.00 0.00 0.00 0.00 0.00 0.01 0.03 0.07
0.00 0.00 0.00 0.00 0.00 0.00 0.00 0.00 0.01 0.01 0.02 0.02 0.02 0.03 0.03 0.04 0.04 0.04 0.05 0.05 0.06 0.06 0.08 0.09 0.09 0.10 0.10 0.09 0.07 0.05 0.04 0.02 0.01 0.01 0.01 0.01 0.01 0.01 0.01 0.01 0.01 0.01 0.04
0.00 0.00 0.00 0.00 0.01 0.01 0.01 0.01 0.01 0.01 0.02 0.03 0.03 0.04 0.04 0.04 0.04 0.04 0.04 0.05 0.06 0.07 0.07 0.09 0.11 0.13 0.12 0.11 0.09 0.07 0.05 0.04 0.06 0.08 0.06 0.04 0.02 0.02 0.02 0.02 0.01 0.01 0.02
0.00 0.00 0.00 0.01 0.02 0.02 0.02 0.01 0.01 0.02 0.03 0.03 0.04 0.05 0.05 0.05 0.05 0.05 0.06 0.08 0.09 0.08 0.08 0.10 0.12 0.14 0.13 0.13 0.11 0.08 0.07 0.07 0.08 0.07 0.05 0.04 0.02 0.02 0.02 0.01 0.01 0.01 0.01